TimeEST,TemperatureF,Dew PointF,Humidity,Sea Level PressureIn,VisibilityMPH,Wind Direction,Wind SpeedMPH,Gust SpeedMPH,PrecipitationIn,Events,Conditions,WindDirDegrees,DateUTC
12:15 AM,37.4,32.0,81,30.25,10.0,Calm,Calm,-,N/A,,Clear,0,2012-11-20 05:15:00
12:35 AM,37.4,32.0,81,30.24,10.0,Calm,Calm,-,N/A,,Clear,0,2012-11-20 05:35:00
12:55 AM,37.4,32.0,81,30.23,10.0,Calm,Calm,-,N/A,,Clear,0,2012-11-20 05:55:00
1:15 AM,35.6,30.2,81,30.22,10.0,Calm,Calm,-,N/A,,Clear,0,2012-11-20 06:15:00
1:35 AM,35.6,30.2,81,30.22,10.0,Calm,Calm,-,N/A,,Clear,0,2012-11-20 06:35:00
1:55 AM,33.8,30.2,87,30.22,10.0,Calm,Calm,-,N/A,,Clear,0,2012-11-20 06:55:00
2:15 AM,33.8,30.2,87,30.23,10.0,Calm,Calm,-,N/A,,Clear,0,2012-11-20 07:15:00
2:35 AM,33.8,30.2,87,30.22,10.0,Calm,Calm,-,N/A,,Clear,0,2012-11-20 07:35:00
2:55 AM,33.8,30.2,87,30.22,10.0,Calm,Calm,-,N/A,,Clear,0,2012-11-20 07:55:00
3:15 AM,35.6,32.0,87,30.22,10.0,Calm,Calm,-,N/A,,Mostly Cloudy,0,2012-11-20 08:15:00
3:35 AM,35.6,32.0,87,30.22,10.0,Calm,Calm,-,N/A,,Overcast,0,2012-11-20 08:35:00
3:55 AM,35.6,32.0,87,30.21,10.0,Calm,Calm,-,N/A,,Overcast,0,2012-11-20 08:55:00
4:15 AM,35.6,33.8,93,30.21,10.0,Calm,Calm,-,N/A,,Overcast,0,2012-11-20 09:15:00
4:35 AM,37.4,33.8,87,30.21,10.0,Calm,Calm,-,N/A,,Overcast,0,2012-11-20 09:35:00
4:55 AM,35.6,33.8,93,30.22,10.0,Calm,Calm,-,N/A,,Overcast,0,2012-11-20 09:55:00
5:15 AM,37.4,33.8,87,30.22,10.0,Calm,Calm,-,N/A,,Overcast,0,2012-11-20 10:15:00
5:35 AM,37.4,33.8,87,30.21,10.0,Calm,Calm,-,N/A,,Overcast,0,2012-11-20 10:35:00
5:55 AM,37.4,33.8,87,30.20,9.0,Calm,Calm,-,N/A,,Overcast,0,2012-11-20 10:55:00
6:15 AM,37.4,33.8,87,30.21,10.0,NW,3.5,-,N/A,,Overcast,310,2012-11-20 11:15:00
6:35 AM,37.4,33.8,87,30.21,10.0,Calm,Calm,-,N/A,,Overcast,0,2012-11-20 11:35:00
6:55 AM,37.4,33.8,87,30.22,9.0,Calm,Calm,-,N/A,,Overcast,0,2012-11-20 11:55:00
7:15 AM,37.4,33.8,87,30.21,7.0,Calm,Calm,-,N/A,,Overcast,0,2012-11-20 12:15:00
7:35 AM,37.4,33.8,87,30.21,7.0,Calm,Calm,-,N/A,,Overcast,0,2012-11-20 12:35:00
7:55 AM,39.2,35.6,87,30.22,7.0,Calm,Calm,-,N/A,,Overcast,0,2012-11-20 12:55:00
8:15 AM,41.0,37.4,87,30.22,7.0,NW,4.6,-,N/A,,Overcast,320,2012-11-20 13:15:00
8:35 AM,42.8,37.4,81,30.22,8.0,Calm,Calm,-,N/A,,Overcast,0,2012-11-20 13:35:00
8:55 AM,42.8,37.4,81,30.21,9.0,Calm,Calm,-,N/A,,Overcast,0,2012-11-20 13:55:00
9:15 AM,44.6,37.4,76,30.21,8.0,Calm,Calm,-,N/A,,Mostly Cloudy,0,2012-11-20 14:15:00
9:35 AM,44.6,39.2,81,30.21,9.0,NNW,4.6,-,N/A,,Partly Cloudy,330,2012-11-20 14:35:00
9:55 AM,46.4,39.2,76,30.21,9.0,Calm,Calm,-,N/A,,Partly Cloudy,0,2012-11-20 14:55:00
10:15 AM,48.2,39.2,71,30.20,10.0,ENE,4.6,-,N/A,,Partly Cloudy,70,2012-11-20 15:15:00
10:35 AM,48.2,39.2,71,30.20,10.0,Calm,Calm,-,N/A,,Clear,0,2012-11-20 15:35:00
10:55 AM,48.2,39.2,71,30.20,10.0,Calm,Calm,-,N/A,,Clear,0,2012-11-20 15:55:00
11:15 AM,48.2,39.2,71,30.19,10.0,Calm,Calm,-,N/A,,Clear,0,2012-11-20 16:15:00
11:35 AM,48.2,41.0,76,30.18,10.0,NW,4.6,-,N/A,,Clear,310,2012-11-20 16:35:00
11:55 AM,50.0,41.0,71,30.17,10.0,Calm,Calm,-,N/A,,Clear,0,2012-11-20 16:55:00
12:15 PM,50.0,39.2,66,30.16,10.0,North,3.5,-,N/A,,Clear,350,2012-11-20 17:15:00
12:35 PM,50.0,41.0,71,30.16,10.0,Calm,Calm,-,N/A,,Clear,0,2012-11-20 17:35:00
12:55 PM,51.8,39.2,62,30.16,10.0,Calm,Calm,-,N/A,,Clear,0,2012-11-20 17:55:00
1:15 PM,51.8,41.0,67,30.14,10.0,Calm,Calm,-,N/A,,Clear,0,2012-11-20 18:15:00
1:35 PM,51.8,41.0,67,30.13,10.0,NW,3.5,-,N/A,,Clear,310,2012-11-20 18:35:00
1:55 PM,51.8,39.2,62,30.13,10.0,Calm,Calm,-,N/A,,Clear,0,2012-11-20 18:55:00
2:15 PM,51.8,41.0,67,30.12,10.0,NNW,3.5,-,N/A,,Clear,340,2012-11-20 19:15:00
2:35 PM,51.8,41.0,67,30.12,10.0,NNW,3.5,-,N/A,,Clear,340,2012-11-20 19:35:00
2:55 PM,51.8,41.0,67,30.13,10.0,NW,3.5,-,N/A,,Clear,320,2012-11-20 19:55:00
3:15 PM,51.8,39.2,62,30.12,10.0,North,3.5,-,N/A,,Partly Cloudy,360,2012-11-20 20:15:00
3:35 PM,50.0,39.2,66,30.12,10.0,Calm,Calm,-,N/A,,Partly Cloudy,0,2012-11-20 20:35:00
3:55 PM,50.0,41.0,71,30.12,10.0,NNE,3.5,-,N/A,,Clear,30,2012-11-20 20:55:00
4:15 PM,48.2,41.0,76,30.12,10.0,NE,3.5,-,N/A,,Clear,40,2012-11-20 21:15:00
4:35 PM,48.2,39.2,71,30.12,10.0,Calm,Calm,-,N/A,,Clear,0,2012-11-20 21:35:00
4:55 PM,48.2,39.2,71,30.13,10.0,Calm,Calm,-,N/A,,Clear,0,2012-11-20 21:55:00
5:15 PM,46.4,39.2,76,30.13,10.0,Calm,Calm,-,N/A,,Clear,0,2012-11-20 22:15:00
5:35 PM,46.4,39.2,76,30.13,10.0,Calm,Calm,-,N/A,,Partly Cloudy,0,2012-11-20 22:35:00
5:55 PM,46.4,39.2,76,30.14,10.0,Calm,Calm,-,N/A,,Clear,0,2012-11-20 22:55:00
6:15 PM,46.4,39.2,76,30.14,10.0,Calm,Calm,-,N/A,,Clear,0,2012-11-20 23:15:00
6:35 PM,46.4,39.2,76,30.14,10.0,Calm,Calm,-,N/A,,Clear,0,2012-11-20 23:35:00
6:55 PM,46.4,39.2,76,30.15,10.0,Calm,Calm,-,N/A,,Clear,0,2012-11-20 23:55:00
7:15 PM,44.6,39.2,81,30.15,10.0,Calm,Calm,-,N/A,,Clear,0,2012-11-21 00:15:00
7:35 PM,44.6,39.2,81,30.16,10.0,Calm,Calm,-,N/A,,Clear,0,2012-11-21 00:35:00
7:55 PM,42.8,39.2,87,30.16,10.0,Calm,Calm,-,N/A,,Clear,0,2012-11-21 00:55:00
8:15 PM,42.8,37.4,81,30.16,10.0,Calm,Calm,-,N/A,,Clear,0,2012-11-21 01:15:00
8:35 PM,39.2,37.4,93,30.15,10.0,Calm,Calm,-,N/A,,Clear,0,2012-11-21 01:35:00
8:55 PM,41.0,39.2,93,30.15,10.0,Calm,Calm,-,N/A,,Clear,0,2012-11-21 01:55:00
9:15 PM,39.2,37.4,93,30.16,8.0,Calm,Calm,-,N/A,,Clear,0,2012-11-21 02:15:00
9:35 PM,39.2,37.4,93,30.16,9.0,Calm,Calm,-,N/A,,Clear,0,2012-11-21 02:35:00
9:55 PM,39.2,37.4,93,30.16,9.0,Calm,Calm,-,N/A,,Clear,0,2012-11-21 02:55:00
10:15 PM,39.2,37.4,93,30.17,7.0,Calm,Calm,-,N/A,,Clear,0,2012-11-21 03:15:00
10:35 PM,39.2,37.4,93,30.17,5.0,Calm,Calm,-,N/A,,Clear,0,2012-11-21 03:35:00
10:55 PM,37.4,35.6,93,30.17,5.0,Calm,Calm,-,N/A,,Clear,0,2012-11-21 03:55:00
11:15 PM,37.4,35.6,93,30.17,4.0,Calm,Calm,-,N/A,,Clear,0,2012-11-21 04:15:00
11:35 PM,37.4,35.6,93,30.17,5.0,Calm,Calm,-,N/A,,Clear,0,2012-11-21 04:35:00
11:55 PM,35.6,33.8,93,30.17,4.0,Calm,Calm,-,N/A,,Clear,0,2012-11-21 04:55:00